• In Romania
  • List of Countries
  • For 7 days
  • Water Temperature
  • Satellite Maps
  • Weather Map
  • Weather Widgets
  • user-avatar
    Login

    Hourly Weather Birao

    Today, 20 June, Wednesday

    Time Temperature Precipitation Wind Pressure Humidity
    00:00 +27°C° 0 mm 2 mps 718 mmHg 71%
    01:00 +27°C° 0 mm 2 mps 719 mmHg 71%
    02:00 +26°C° 0 mm 2 mps 719 mmHg 73%
    03:00 +26°C° 0 mm 2 mps 719 mmHg 73%
    04:00 +26°C° 0 mm 2 mps 719 mmHg 73%
    05:00 +26°C° 0 mm 2 mps 719 mmHg 74%
    06:00 +27°C° 0 mm 2 mps 719 mmHg 71%
    07:00 +27°C° 0 mm 2 mps 719 mmHg 68%
    08:00 +28°C° 0 mm 3 mps 720 mmHg 66%
    09:00 +29°C° 0 mm 3 mps 720 mmHg 57%
    10:00 +31°C° 0 mm 3 mps 720 mmHg 48%
    11:00 +34°C° 0 mm 3 mps 720 mmHg 40%
    12:00 +35°C° 0 mm 3 mps 720 mmHg 37%
    13:00 +36°C° 0 mm 3 mps 719 mmHg 33%
    14:00 +37°C° 0 mm 3 mps 719 mmHg 30%
    15:00 +37°C° 0 mm 2 mps 719 mmHg 30%
    16:00 +37°C° 0 mm 2 mps 718 mmHg 30%
    17:00 +37°C° 0 mm 2 mps 718 mmHg 30%
    18:00 +36°C° 0 mm 2 mps 718 mmHg 32%
    19:00 +34°C° 0 mm 1 mps 718 mmHg 34%
    20:00 +33°C° 0 mm 1 mps 718 mmHg 36%
    21:00 +32°C° 0 mm 2 mps 719 mmHg 40%
    22:00 +31°C° 0 mm 2 mps 719 mmHg 43%
    23:00 +31°C° 0 mm 2 mps 720 mmHg 46%

    Tomorrow, 21 June, Thursday

    Time Temperature Precipitation Wind Pressure Humidity
    00:00 +30°C° 0 mm 2 mps 719 mmHg 50%
    01:00 +29°C° 0 mm 2 mps 719 mmHg 53%
    02:00 +28°C° 0 mm 2 mps 719 mmHg 57%
    03:00 +28°C° 0 mm 2 mps 719 mmHg 60%
    04:00 +27°C° 0 mm 2 mps 719 mmHg 63%
    05:00 +27°C° 0 mm 1 mps 719 mmHg 66%
    06:00 +28°C° 0.1 mm 2 mps 719 mmHg 63%
    07:00 +28°C° 0.1 mm 2 mps 720 mmHg 59%
    08:00 +29°C° 0.1 mm 3 mps 720 mmHg 56%
    09:00 +31°C° 0 mm 3 mps 720 mmHg 50%
    10:00 +34°C° 0 mm 4 mps 721 mmHg 43%
    11:00 +36°C° 0 mm 4 mps 721 mmHg 37%
    12:00 +37°C° 0 mm 3 mps 720 mmHg 35%
    13:00 +37°C° 0 mm 3 mps 720 mmHg 33%
    14:00 +38°C° 0 mm 2 mps 719 mmHg 32%
    15:00 +37°C° 0 mm 2 mps 718 mmHg 33%
    16:00 +37°C° 0 mm 2 mps 718 mmHg 34%
    17:00 +36°C° 0 mm 2 mps 717 mmHg 35%
    18:00 +35°C° 0.1 mm 2 mps 718 mmHg 39%
    19:00 +34°C° 0.1 mm 2 mps 718 mmHg 44%
    20:00 +31°C° 0.1 mm 1 mps 718 mmHg 48%
    21:00 +31°C° 0 mm 2 mps 718 mmHg 50%
    22:00 +30°C° 0 mm 2 mps 719 mmHg 52%
    23:00 +30°C° 0 mm 2 mps 719 mmHg 54%

    Day after tomorrow, 22 June, Friday

    Time Temperature Precipitation Wind Pressure Humidity
    00:00 +29°C° 0.9 mm 2 mps 719 mmHg 61%
    01:00 +28°C° 0.9 mm 2 mps 719 mmHg 67%
    02:00 +27°C° 0.9 mm 2 mps 719 mmHg 73%
    03:00 +26°C° 0.4 mm 2 mps 719 mmHg 77%
    04:00 +26°C° 0.4 mm 2 mps 719 mmHg 80%
    05:00 +25°C° 0.4 mm 2 mps 719 mmHg 83%
    06:00 +26°C° 0.2 mm 2 mps 719 mmHg 81%
    07:00 +26°C° 0.2 mm 3 mps 720 mmHg 79%
    08:00 +27°C° 0.2 mm 4 mps 720 mmHg 77%
    09:00 +29°C° 0 mm 4 mps 721 mmHg 68%
    10:00 +32°C° 0 mm 4 mps 721 mmHg 59%
    11:00 +34°C° 0 mm 4 mps 721 mmHg 50%
    12:00 +36°C° 0 mm 3 mps 720 mmHg 45%
    13:00 +37°C° 0 mm 3 mps 720 mmHg 40%
    14:00 +38°C° 0 mm 3 mps 719 mmHg 35%
    15:00 +38°C° 0 mm 2 mps 718 mmHg 36%
    16:00 +37°C° 0 mm 2 mps 718 mmHg 37%
    17:00 +37°C° 0 mm 2 mps 717 mmHg 37%
    18:00 +35°C° 0 mm 2 mps 717 mmHg 42%
    19:00 +34°C° 0 mm 3 mps 718 mmHg 48%
    20:00 +33°C° 0 mm 4 mps 718 mmHg 53%
    21:00 +30°C° 0.2 mm 4 mps 718 mmHg 59%
    22:00 +29°C° 0.2 mm 3 mps 718 mmHg 65%
    23:00 +28°C° 0.2 mm 3 mps 719 mmHg 71%

    23 June, Saturday

    Time Temperature Precipitation Wind Pressure Humidity
    00:00 +27°C° 2.2 mm 3 mps 719 mmHg 75%
    01:00 +26°C° 2.2 mm 3 mps 719 mmHg 79%
    02:00 +26°C° 2.2 mm 3 mps 719 mmHg 83%
    03:00 +26°C° 0.6 mm 3 mps 719 mmHg 85%
    04:00 +25°C° 0.6 mm 3 mps 719 mmHg 86%
    05:00 +25°C° 0.6 mm 2 mps 719 mmHg 87%
    06:00 +25°C° 0.2 mm 3 mps 719 mmHg 85%
    07:00 +26°C° 0.2 mm 3 mps 719 mmHg 83%
    08:00 +26°C° 0.2 mm 3 mps 720 mmHg 81%
    09:00 +28°C° 0 mm 3 mps 720 mmHg 72%
    10:00 +30°C° 0 mm 3 mps 720 mmHg 62%
    11:00 +33°C° 0 mm 3 mps 720 mmHg 53%
    12:00 +35°C° 0 mm 3 mps 719 mmHg 48%
    13:00 +36°C° 0 mm 3 mps 718 mmHg 42%
    14:00 +38°C° 0 mm 3 mps 718 mmHg 37%
    15:00 +37°C° 0 mm 2 mps 717 mmHg 37%
    16:00 +37°C° 0 mm 2 mps 717 mmHg 37%
    17:00 +36°C° 0 mm 1 mps 716 mmHg 37%
    18:00 +36°C° 0 mm 2 mps 716 mmHg 40%
    19:00 +35°C° 0 mm 2 mps 717 mmHg 43%
    20:00 +34°C° 0 mm 3 mps 717 mmHg 46%
    21:00 +31°C° 0.8 mm 3 mps 717 mmHg 52%
    22:00 +30°C° 0.8 mm 3 mps 717 mmHg 57%
    23:00 +29°C° 0.8 mm 3 mps 718 mmHg 62%

    24 June, Sunday

    Time Temperature Precipitation Wind Pressure Humidity
    00:00 +29°C° 1.4 mm 3 mps 717 mmHg 67%
    01:00 +28°C° 1.4 mm 3 mps 717 mmHg 72%
    02:00 +27°C° 1.4 mm 3 mps 717 mmHg 77%
    03:00 +27°C° 0.4 mm 2 mps 717 mmHg 77%
    04:00 +27°C° 0.4 mm 2 mps 717 mmHg 78%
    05:00 +27°C° 0.4 mm 2 mps 717 mmHg 78%
    06:00 +27°C° 0 mm 2 mps 718 mmHg 77%
    07:00 +28°C° 0 mm 2 mps 718 mmHg 75%
    08:00 +28°C° 0 mm 2 mps 718 mmHg 74%
    09:00 +29°C° 0 mm 2 mps 719 mmHg 68%
    10:00 +30°C° 0 mm 3 mps 719 mmHg 62%
    11:00 +33°C° 0 mm 4 mps 719 mmHg 56%
    12:00 +34°C° 0 mm 4 mps 718 mmHg 52%
    13:00 +35°C° 0 mm 4 mps 718 mmHg 47%
    14:00 +36°C° 0 mm 4 mps 717 mmHg 43%
    15:00 +36°C° 0 mm 3 mps 717 mmHg 43%
    16:00 +36°C° 0 mm 3 mps 717 mmHg 42%
    17:00 +36°C° 0 mm 3 mps 716 mmHg 42%
    18:00 +34°C° 0 mm 3 mps 717 mmHg 46%
    19:00 +33°C° 0 mm 3 mps 717 mmHg 50%
    20:00 +31°C° 0 mm 2 mps 717 mmHg 54%
    21:00 +30°C° 0.7 mm 2 mps 717 mmHg 60%
    22:00 +29°C° 0.7 mm 2 mps 717 mmHg 65%
    23:00 +28°C° 0.7 mm 2 mps 718 mmHg 70%

    25 June, Monday

    Time Temperature Precipitation Wind Pressure Humidity
    00:00 +28°C° 0.1 mm 2 mps 717 mmHg 72%
    01:00 +28°C° 0.1 mm 2 mps 717 mmHg 73%
    02:00 +27°C° 0.1 mm 3 mps 717 mmHg 75%
    03:00 +27°C° 0 mm 2 mps 717 mmHg 76%
    04:00 +27°C° 0 mm 2 mps 716 mmHg 77%
    05:00 +27°C° 0 mm 1 mps 716 mmHg 78%
    06:00 +27°C° 0 mm 2 mps 717 mmHg 76%
    07:00 +27°C° 0 mm 2 mps 718 mmHg 74%
    08:00 +28°C° 0 mm 2 mps 718 mmHg 72%
    09:00 +30°C° 0 mm 3 mps 718 mmHg 64%
    10:00 +33°C° 0 mm 3 mps 718 mmHg 55%
    11:00 +35°C° 0 mm 3 mps 719 mmHg 47%
    12:00 +36°C° 0 mm 3 mps 718 mmHg 43%
    13:00 +37°C° 0 mm 3 mps 717 mmHg 39%
    14:00 +38°C° 0 mm 3 mps 717 mmHg 35%
    15:00 +38°C° 0 mm 3 mps 716 mmHg 35%
    16:00 +37°C° 0 mm 3 mps 716 mmHg 36%
    17:00 +37°C° 0 mm 2 mps 716 mmHg 36%
    18:00 +36°C° 0 mm 2 mps 716 mmHg 40%
    19:00 +35°C° 0 mm 2 mps 716 mmHg 44%
    20:00 +33°C° 0 mm 3 mps 716 mmHg 48%
    21:00 +31°C° 2.6 mm 2 mps 717 mmHg 57%
    22:00 +29°C° 2.6 mm 2 mps 717 mmHg 66%
    23:00 +28°C° 2.6 mm 2 mps 717 mmHg 76%
    Show more